Probability
0 0 0 0 0 0 0 0 0 0 0 0 0 0 0 0 0 0 0 0 0 0 0 0 0 0 0 0 0 0 0 0 0 0 0 0 0 0
0 0 0 0 0 0 0 0 0 0 0 0 0 0 0 0 0 0 0 0 0 0 0 0 0 0 0 0 0 0 0 0 0 0 0 0 0 0
0 0 0 0 0 0 0 0 0 0 0 0 0 0 0 0 0 0 0 0 0 0 0 0 0 0 0 0 0 0 0 0 0 0 0 0 0 0
0 0 0 0 0 0 0 0 0 0 0 0 0 0 0 0 0 0 0 0 0 0 0 0 0 0 0 0 0 0 0 0 0 0 0 0 0 0
0 0 0 0 0 0 0 0 0 0 0 0 0 0 0 0 0 0 0 0 0 0 0 0 0 0 0 0 0 0 0 0 0 0 0 0 0 0
0 0 0 0 0 0 0 0 0 0 0 0 0 0 0 0 0 0 0 0 0 0 0 0 0 0 0 0 0 0 0 0 0 0 0 0 0 0
0 0 0 0 0 0 0 0 0 0 0 0 0 0 0 0 0 0 0 0 0 0 0 0 0 0 0 0 0 0 0 0 0 0 0 0 0 0
0 0 0 0 0 0 0 0 0 0 0 0 0 0 0 0 0 0 0 0 0 0 0 0 0 0 0 0 0 0 0 0 0 0 0 0 0 0
0 0 0 0 0 0 0 0 0 0 0 0 0 0 0 0 0 0 0 0 0 0 0 0 0 0 0 0 0 0 0 0 0 0 0 0 0 0
0 0 0 0 0 0 0 0 0 0 0 0 0 0 0 0 0 0 0 0 0 0 0 0 0 0 0 0 0 0 0 0 0 0 0 0 0 0
0 0 0 0 0 0 0 0 0 0 0 0 0 0 0 0 0 0 0 0 0 0 0 0 0 0 0 0 0 0 0 0 0 0 0 0 0 0
0 0 0 0 0 0 0 0 0 0 0 0 0 0 0 0 0 0 0 0 0 0 0 0 0 0 0 0 0 0 0 0 0 0 0 0 0 0
0 0 0 0 0 0 0 0 0 0 0 0 0 0 0 0 0 0 0 0 0 0 0 0 0 0 0 0 0 0 0 0 0 0 0 0 0 0
0 0 0 0 0 0 0 0 0 0 0 0 0 0 0 0 0 0 0 0 0 0 0 0 0 0 0 0 0 0 0 0 0 0 0 0 0 0
0 0 0 0 0 0 0 0 0 0 0 0 0 0 0 0 0 0 0 0 0 0 0 0 0 0 0 0 0 0 0 0 0 0 0 0 0 0
0 0 0 0 0 0 0 0 0 0 0 0 0 0 0 0 0 0 0 0 0 0 0 0 0 0 0 0 0 0 0 0 0 0 0 0 0 0
0 0 0 0 0 0 0 0 0 0 0 0 0 0 0 0 0 0 0 0 0 0 0 0 0 0 0 0 0 0 0 0 0 0 0 0 0 0
0 0 0 0 0 0 0 0 0 0 0 0 0 0 0 0 0 0 0 0 0 0 0 0 0 0 0 0 0 0 0 0 0 0 0 0 0 0
0 0 0 0 0 0 0 0 0 0 0 0 0 0 0 0 0 0 0 0 0 0 0 0 0 0 0 0 0 0 0 0 0 0 0 0 0 0
0 0 0 0 0 0 0 0 0 0 0 0 0 0 0 0 0 0 0 0 0 0 0 0 0 0 0 0 0 0 0 0 0 0 0 0 0 0
0 0 0 0 0 0 0 0 0 0 0 0 0 0 0 0 0 0 0 0 0 0 0 0 0 0 0 0 0 0 0 0 0 0 0 0 0 0
0 0 0 0 0 0 0 0 0 0 0 0 0 0 0 0 0 0 0 0 0 0 0 0 0 0 0 0 0 0 0 0 0 0 0 0 0 0
0 0 0 0 0 0 0 0 0 0 0 0 0 0 0 0 0 0 0 0 0 0 0 0 0 0 0 0 0 0 0 0 0 0 0 0 0 0
Wind_Speed
2 3 2 2 2 2 2 2 3 5 6 4 3 5 7 7 14 10 9 20 26 27 27 28 28 28 28 28 27 27 27 26 26 25 24 24 25 24
2 2 2 2 2 2 3 3 3 4 7 5 5 7 9 11 18 12 11 25 23 25 26 27 27 27 27 27 28 27 27 27 27 26 26 25 25 25
2 2 3 3 3 3 3 3 3 3 9 11 6 6 8 10 12 10 10 10 11 22 26 26 26 27 27 27 27 27 27 26 26 27 27 26 26 26
2 3 4 3 4 3 3 4 4 4 6 14 13 8 8 9 11 12 12 12 9 20 24 26 26 26 26 26 26 26 26 26 26 26 26 26 26 26
3 4 4 4 5 4 4 4 4 6 5 10 14 10 8 8 11 12 12 8 11 15 21 23 24 24 24 25 26 27 26 26 26 25 25 25 26 26
4 5 5 5 5 5 5 5 5 6 6 9 12 11 10 9 9 10 12 9 10 11 15 17 19 22 25 27 27 27 27 26 26 26 25 24 25 25
5 5 6 8 10 8 7 6 6 6 6 9 12 12 11 10 11 11 13 13 10 9 9 8 9 10 12 18 22 25 26 27 26 26 26 26 25 25
6 6 6 6 10 14 15 15 13 9 7 8 11 13 14 13 12 12 14 15 15 4 8 11 9 10 9 8 19 26 27 27 28 27 27 26 26 26
6 7 7 5 5 6 11 15 14 17 18 15 15 16 16 15 16 17 16 17 17 12 13 16 9 11 9 12 23 26 28 28 27 26 25 25 25 26
8 8 8 7 7 8 8 9 10 11 15 13 13 15 15 16 16 17 18 17 15 12 12 16 12 11 11 7 19 26 27 26 24 23 24 25 25 26
8 8 8 7 12 15 10 8 11 11 15 20 22 23 27 28 23 14 12 13 14 11 9 12 13 12 10 8 12 22 22 22 23 26 28 28 27 26
7 8 10 12 14 15 9 7 10 11 10 11 15 18 17 18 22 14 11 11 13 10 7 8 10 11 9 5 6 6 10 20 26 28 28 28 27 17
6 6 7 13 15 15 13 7 12 13 6 7 9 10 10 10 11 11 11 11 12 12 11 11 12 12 11 11 10 11 10 10 12 15 21 25 26 22
7 6 7 14 15 15 10 12 17 12 4 5 7 8 9 9 10 11 13 13 13 16 16 15 13 13 13 14 12 8 8 9 10 12 11 19 22 25
7 13 15 17 13 8 10 14 9 3 4 5 7 8 9 10 11 11 12 12 13 14 14 15 14 13 13 14 14 13 13 12 11 10 10 10 11 11
8 9 13 14 10 8 5 6 4 4 5 6 8 8 9 9 9 9 10 10 11 11 11 13 13 15 13 14 14 14 12 10 9 10 11 12 11 11
6 3 3 2 3 3 3 4 4 4 5 5 6 7 9 9 10 9 8 10 10 12 13 11 10 11 13 14 14 14 13 13 12 12 11 12 12 11
9 4 4 4 5 4 4 4 4 4 4 5 5 6 8 9 10 10 9 9 10 11 12 12 13 13 11 9 13 13 11 12 12 11 10 12 14 11
8 4 5 5 5 4 4 4 5 4 4 5 6 6 7 8 9 10 10 10 10 11 11 11 11 12 14 14 10 11 12 12 12 11 10 10 13 13
4 4 5 4 4 5 5 5 5 4 4 5 5 6 6 8 9 10 10 11 11 12 12 10 9 11 12 15 16 16 17 12 10 10 10 9 11 15
4 4 4 4 4 4 4 4 5 5 5 5 5 6 6 7 8 9 10 13 12 11 12 13 12 17 14 12 11 10 8 11 12 9 9 9 8 7
4 4 4 4 4 4 4 4 4 5 5 5 5 6 6 6 9 11 10 11 10 11 13 13 13 12 11 12 13 12 10 9 10 13 11 10 7 6
4 4 4 4 5 4 4 5 6 6 5 5 5 6 6 7 7 9 10 10 10 11 12 13 12 10 10 11 11 10 11 10 7 7 6 12 15 12
Wind_Direction
35 14 0 343 340 320 306 296 292 303 301 286 316 337 332 324 322 322 321 318 317 316 313 312 310 309 308 307 305 303 301 299 297 294 292 288 283 281
16 358 340 322 311 304 298 291 272 266 285 282 296 314 323 321 319 321 314 316 316 314 313 311 309 308 307 306 304 302 300 298 297 294 292 290 285 282
325 320 305 299 296 299 298 287 276 272 282 290 292 307 314 315 314 309 309 307 310 315 313 311 313 313 311 309 306 304 302 300 298 295 293 290 287 284
285 289 286 292 290 287 285 283 280 273 278 292 300 309 310 310 308 310 310 310 309 312 315 317 314 312 313 312 311 309 308 306 303 299 295 292 289 286
260 265 271 278 279 276 281 280 279 286 281 288 296 305 306 308 308 304 300 300 306 309 313 312 311 314 319 320 319 318 316 312 307 302 299 295 291 287
254 255 258 259 267 274 280 277 283 285 288 290 294 301 305 304 301 309 308 303 302 307 304 305 309 316 314 312 311 311 310 308 308 309 307 302 297 292
259 256 256 261 267 273 275 267 271 275 282 289 293 298 301 309 309 308 303 304 296 292 291 293 299 295 298 300 302 301 302 306 307 307 306 304 301 297
266 265 264 262 272 279 285 287 284 282 281 282 289 291 296 300 301 299 300 300 302 284 290 294 289 288 287 283 294 300 303 304 304 303 302 300 298 296
263 268 271 264 262 271 281 287 290 289 288 286 286 287 292 295 294 293 289 289 290 298 299 295 289 287 284 291 298 299 299 299 299 299 300 300 298 295
255 257 263 267 266 273 272 273 278 283 285 284 280 284 287 289 286 287 290 291 290 289 287 289 292 289 291 280 293 294 295 297 300 303 307 306 301 297
256 255 255 258 268 277 280 279 285 286 293 294 295 297 299 301 302 301 297 295 294 294 288 284 291 295 291 285 283 289 292 297 302 304 302 301 301 299
256 258 256 259 265 273 275 276 285 293 300 305 307 306 304 301 301 297 296 295 296 297 290 288 296 306 297 266 270 284 290 291 292 293 294 296 298 298
248 252 255 266 272 278 286 286 290 302 316 316 308 304 303 300 299 299 299 299 298 293 297 300 296 294 287 290 289 285 279 280 284 285 288 290 291 292
239 249 256 268 273 282 295 297 302 315 322 304 299 300 301 302 303 304 302 297 290 289 291 290 286 286 287 287 289 285 280 279 279 280 280 284 286 286
240 250 258 265 275 289 294 296 307 305 287 288 292 295 298 300 304 303 300 296 291 288 289 288 285 284 280 282 285 286 290 288 277 272 275 277 278 280
261 260 266 270 273 280 283 288 281 271 274 280 287 294 301 302 301 303 305 309 305 301 292 287 287 288 287 284 283 283 280 277 279 278 279 277 274 269
237 223 209 222 239 248 253 254 260 267 271 275 287 297 301 302 303 306 303 303 303 306 310 308 297 290 284 283 283 279 279 278 276 277 278 279 275 267
237 212 214 219 231 238 245 256 259 262 269 281 287 290 297 302 304 305 303 302 304 305 305 308 311 310 302 275 256 269 276 279 281 277 270 275 278 273
242 222 220 221 228 234 240 248 259 265 274 281 285 288 294 298 300 303 306 307 306 305 304 303 304 305 307 306 290 284 290 288 286 283 275 268 273 276
220 217 222 223 226 233 240 248 260 271 274 276 280 284 287 293 298 302 304 306 308 308 307 305 303 304 302 299 297 295 293 288 288 287 287 280 271 272
226 223 222 223 228 232 238 244 252 262 268 273 277 280 284 292 296 299 303 304 307 308 309 309 306 304 298 292 289 293 296 307 311 303 300 294 288 283
235 229 226 225 228 232 237 243 253 259 265 267 274 280 285 288 295 299 301 305 308 308 307 306 307 309 309 308 306 306 310 318 317 313 310 317 316 315
239 235 233 231 231 231 234 240 247 256 258 264 272 279 284 289 293 294 296 301 307 310 312 312 314 314 313 312 314 317 320 322 320 320 314 329 335 338